| time (UTC) | temp C | wind direction | speed KPH | gust KPH | rain 1hr cm | rain 24hr cm | rain mn cm | humidity % | barometer mb |
| 20260509051704 | 8 | 46 | 1.6 | 8.0 | 0.00 | 0.00 | 0.00 | 92 | 1017.9 |
| 20260509051203 | 8 | 59 | 1.6 | 9.7 | 0.00 | 0.00 | 0.00 | 92 | 1017.8 |
| 20260509050704 | 8 | 81 | 0.0 | 1.6 | 0.00 | 0.00 | 0.00 | 92 | 1017.9 |
| 20260509050203 | 8 | 120 | 1.6 | 11.3 | 0.00 | 0.00 | 0.00 | 92 | 1017.9 |
| 20260509044703 | 8 | 53 | 1.6 | 4.8 | 0.00 | 0.00 | 0.00 | 92 | 1017.8 |
| 20260509044205 | 8 | 41 | 1.6 | 4.8 | 0.00 | 0.00 | 0.00 | 91 | 1017.8 |
| 20260509043704 | 8 | 111 | 1.6 | 4.8 | 0.00 | 0.00 | 0.00 | 91 | 1017.7 |
| 20260509041703 | 8 | 40 | 0.0 | 0.0 | 0.00 | 0.00 | 0.00 | 90 | 1017.9 |
| 20260509041204 | 8 | 40 | 0.0 | 1.6 | 0.00 | 0.00 | 0.00 | 90 | 1017.9 |
| 20260509040703 | 8 | 40 | 0.0 | 1.6 | 0.00 | 0.00 | 0.00 | 90 | 1017.9 |
| 20260509040203 | 8 | 41 | 1.6 | 3.2 | 0.00 | 0.00 | 0.00 | 89 | 1018.0 |
| 20260509034704 | 8 | 41 | 0.0 | 0.0 | 0.00 | 0.00 | 0.00 | 89 | 1018.0 |
| 20260509034204 | 9 | 41 | 0.0 | 0.0 | 0.00 | 0.00 | 0.00 | 89 | 1018.0 |
| 20260509033704 | 9 | 41 | 0.0 | 0.0 | 0.00 | 0.00 | 0.00 | 89 | 1018.1 |
| 20260509033204 | 9 | 41 | 0.0 | 4.8 | 0.00 | 0.00 | 0.00 | 90 | 1018.1 |
| 20260509031703 | 9 | 11 | 3.2 | 4.8 | 0.00 | 0.00 | 0.00 | 89 | 1018.0 |
| 20260509031204 | 9 | 343 | 3.2 | 9.7 | 0.00 | 0.00 | 0.00 | 89 | 1018.0 |
| 20260509030704 | 9 | 44 | 3.2 | 9.7 | 0.00 | 0.00 | 0.00 | 90 | 1017.9 |
| 20260509030203 | 9 | 43 | 1.6 | 11.3 | 0.00 | 0.00 | 0.00 | 89 | 1017.9 |
| 20260509023704 | 9 | 66 | 3.2 | 9.7 | 0.00 | 0.00 | 0.00 | 89 | 1017.9 |
| 20260509023204 | 9 | 56 | 3.2 | 11.3 | 0.00 | 0.00 | 0.00 | 88 | 1017.9 |
| 20260509021703 | 9 | 50 | 3.2 | 9.7 | 0.00 | 0.00 | 0.00 | 88 | 1018.1 |
| 20260509021204 | 10 | 51 | 3.2 | 11.3 | 0.00 | 0.00 | 0.00 | 88 | 1018.0 |
| 20260509020704 | 10 | 58 | 3.2 | 8.0 | 0.00 | 0.00 | 0.00 | 87 | 1018.0 |
| 20260509020204 | 10 | 59 | 3.2 | 11.3 | 0.00 | 0.00 | 0.00 | 87 | 1018.0 |
| 20260509014703 | 10 | 48 | 3.2 | 8.0 | 0.00 | 0.00 | 0.00 | 86 | 1018.1 |
| 20260509014204 | 10 | 55 | 3.2 | 9.7 | 0.00 | 0.00 | 0.00 | 86 | 1018.1 |
| 20260509013704 | 10 | 53 | 3.2 | 9.7 | 0.00 | 0.00 | 0.00 | 86 | 1018.0 |
| 20260509013204 | 10 | 41 | 4.8 | 11.3 | 0.00 | 0.00 | 0.00 | 86 | 1018.1 |
| 20260509011704 | 10 | 66 | 4.8 | 8.0 | 0.00 | 0.00 | 0.00 | 85 | 1018.2 |
| 20260509011203 | 10 | 52 | 3.2 | 9.7 | 0.00 | 0.00 | 0.00 | 85 | 1018.2 |
| 20260509010203 | 10 | 70 | 3.2 | 8.0 | 0.00 | 0.00 | 0.00 | 84 | 1018.3 |
| 20260509004704 | 10 | 356 | 1.6 | 4.8 | 0.00 | 0.00 | 0.00 | 84 | 1018.4 |
| 20260509004203 | 10 | 44 | 1.6 | 4.8 | 0.00 | 0.00 | 0.00 | 83 | 1018.5 |
| 20260509003704 | 10 | 36 | 1.6 | 9.7 | 0.00 | 0.00 | 0.00 | 83 | 1018.4 |
| 20260509003204 | 10 | 88 | 1.6 | 8.0 | 0.00 | 0.00 | 0.00 | 83 | 1018.4 |
| 20260509001705 | 10 | 46 | 3.2 | 8.0 | 0.00 | 0.00 | 0.00 | 82 | 1018.2 |
| 20260509001203 | 10 | 22 | 3.2 | 8.0 | 0.00 | 0.00 | 0.00 | 82 | 1018.3 |
| 20260509000703 | 10 | 101 | 1.6 | 8.0 | 0.00 | 0.00 | 0.00 | 82 | 1018.3 |
| 20260509000204 | 10 | 58 | 3.2 | 8.0 | 0.00 | 0.00 | 0.00 | 81 | 1018.3 |
| 20260508234705 | 10 | 56 | 3.2 | 8.0 | 0.00 | 0.00 | 0.00 | 81 | 1018.4 |
| 20260508234203 | 10 | 42 | 4.8 | 8.0 | 0.00 | 0.00 | 0.00 | 81 | 1018.4 |
| 20260508233204 | 11 | 71 | 1.6 | 9.7 | 0.00 | 0.00 | 0.00 | 81 | 1018.4 |
| 20260508231704 | 11 | 64 | 1.6 | 8.0 | 0.00 | 0.00 | 0.00 | 80 | 1018.3 |
| 20260508231204 | 11 | 67 | 4.8 | 9.7 | 0.00 | 0.00 | 0.00 | 80 | 1018.3 |
| 20260508230703 | 11 | 52 | 3.2 | 8.0 | 0.00 | 0.00 | 0.00 | 79 | 1018.4 |
| 20260508230204 | 11 | 85 | 1.6 | 8.0 | 0.00 | 0.00 | 0.00 | 79 | 1018.4 |
| 20260508224703 | 11 | 60 | 1.6 | 4.8 | 0.00 | 0.00 | 0.00 | 78 | 1018.4 |
| 20260508224204 | 11 | 101 | 1.6 | 4.8 | 0.00 | 0.00 | 0.00 | 78 | 1018.3 |
| 20260508223703 | 11 | 66 | 3.2 | 8.0 | 0.00 | 0.00 | 0.00 | 78 | 1018.3 |
| 20260508223203 | 11 | 85 | 3.2 | 14.5 | 0.00 | 0.00 | 0.00 | 78 | 1018.3 |
| 20260508221704 | 11 | 95 | 1.6 | 4.8 | 0.00 | 0.00 | 0.00 | 77 | 1018.3 |
| 20260508221204 | 11 | 87 | 3.2 | 9.7 | 0.00 | 0.00 | 0.00 | 77 | 1018.3 |
| 20260508220703 | 11 | 74 | 1.6 | 9.7 | 0.00 | 0.00 | 0.00 | 77 | 1018.2 |
| 20260508220203 | 12 | 102 | 3.2 | 9.7 | 0.00 | 0.00 | 0.00 | 77 | 1018.2 |
| 20260508213705 | 12 | 92 | 3.2 | 8.0 | 0.00 | 0.00 | 0.00 | 76 | 1018.2 |
| 20260508213204 | 12 | 87 | 3.2 | 11.3 | 0.00 | 0.00 | 0.00 | 76 | 1018.2 |
| 20260508211704 | 12 | 101 | 3.2 | 11.3 | 0.00 | 0.00 | 0.00 | 76 | 1018.1 |
| 20260508210704 | 12 | 112 | 1.6 | 4.8 | 0.00 | 0.00 | 0.00 | 75 | 1018.1 |
| 20260508204704 | 13 | 34 | 1.6 | 8.0 | 0.00 | 0.00 | 0.00 | 75 | 1018.1 |
| 20260508204204 | 13 | 90 | 1.6 | 4.8 | 0.00 | 0.00 | 0.00 | 75 | 1018.1 |
| 20260508203703 | 13 | 91 | 3.2 | 8.0 | 0.00 | 0.00 | 0.00 | 75 | 1018.1 |
| 20260508201704 | 13 | 132 | 3.2 | 8.0 | 0.00 | 0.00 | 0.00 | 73 | 1017.9 |
| 20260508201203 | 14 | 165 | 1.6 | 8.0 | 0.00 | 0.00 | 0.00 | 72 | 1017.8 |
| 20260508200705 | 14 | 165 | 0.0 | 0.0 | 0.00 | 0.00 | 0.00 | 72 | 1017.7 |
| 20260508200203 | 14 | 165 | 0.0 | 8.0 | 0.00 | 0.00 | 0.00 | 71 | 1017.5 |
| 20260508193703 | 15 | 96 | 1.6 | 12.9 | 0.00 | 0.00 | 0.00 | 70 | 1017.1 |
| 20260508193204 | 15 | 167 | 1.6 | 8.0 | 0.00 | 0.00 | 0.00 | 70 | 1017.1 |
| 20260508191704 | 16 | 109 | 1.6 | 3.2 | 0.00 | 0.00 | 0.00 | 68 | 1016.9 |
| 20260508191204 | 16 | 109 | 3.2 | 4.8 | 0.00 | 0.00 | 0.00 | 67 | 1016.9 |
| 20260508190703 | 16 | 61 | 0.0 | 3.2 | 0.00 | 0.00 | 0.00 | 67 | 1016.9 |
| 20260508190204 | 16 | 61 | 1.6 | 8.0 | 0.00 | 0.00 | 0.00 | 66 | 1016.7 |
| 20260508184703 | 17 | 152 | 1.6 | 4.8 | 0.00 | 0.00 | 0.00 | 63 | 1016.6 |
| 20260508183704 | 17 | 138 | 1.6 | 4.8 | 0.00 | 0.00 | 0.00 | 62 | 1016.5 |
| 20260508181704 | 17 | 181 | 3.2 | 11.3 | 0.00 | 0.00 | 0.00 | 61 | 1016.4 |
| 20260508181204 | 17 | 131 | 1.6 | 4.8 | 0.00 | 0.00 | 0.00 | 61 | 1016.3 |
| 20260508180704 | 17 | 70 | 1.6 | 4.8 | 0.00 | 0.00 | 0.00 | 61 | 1016.4 |
| 20260508180204 | 17 | 153 | 1.6 | 4.8 | 0.00 | 0.00 | 0.00 | 62 | 1016.3 |
| 20260508174704 | 17 | 156 | 0.0 | 4.8 | 0.00 | 0.00 | 0.00 | 62 | 1016.2 |
| 20260508174203 | 17 | 156 | 1.6 | 9.7 | 0.00 | 0.00 | 0.00 | 64 | 1016.2 |
| 20260508173704 | 17 | 153 | 0.0 | 3.2 | 0.00 | 0.00 | 0.00 | 64 | 1016.2 |
| 20260508173204 | 17 | 153 | 0.0 | 4.8 | 0.00 | 0.00 | 0.00 | 62 | 1016.2 |
| 20260508171704 | 17 | 152 | 1.6 | 4.8 | 0.00 | 0.00 | 0.00 | 63 | 1016.2 |
| 20260508171204 | 17 | 144 | 1.6 | 4.8 | 0.00 | 0.00 | 0.00 | 63 | 1016.2 |
| 20260508170703 | 17 | 141 | 0.0 | 1.6 | 0.00 | 0.00 | 0.00 | 63 | 1016.1 |
| 20260508170204 | 17 | 141 | 0.0 | 8.0 | 0.00 | 0.00 | 0.00 | 62 | 1016.1 |
| 20260508164704 | 18 | 161 | 1.6 | 12.9 | 0.00 | 0.00 | 0.00 | 61 | 1016.0 |
| 20260508164204 | 18 | 137 | 4.8 | 14.5 | 0.00 | 0.00 | 0.00 | 59 | 1016.1 |
| 20260508163703 | 18 | 167 | 8.0 | 16.1 | 0.00 | 0.00 | 0.00 | 59 | 1016.1 |
| 20260508161703 | 18 | 165 | 3.2 | 14.5 | 0.00 | 0.00 | 0.00 | 59 | 1016.1 |
| 20260508161204 | 18 | 136 | 3.2 | 14.5 | 0.00 | 0.00 | 0.00 | 59 | 1016.2 |
| 20260508160704 | 18 | 146 | 3.2 | 9.7 | 0.00 | 0.00 | 0.00 | 59 | 1016.1 |
| 20260508160204 | 18 | 163 | 4.8 | 19.3 | 0.00 | 0.00 | 0.00 | 59 | 1016.1 |
| 20260508154704 | 18 | 163 | 12.9 | 16.1 | 0.00 | 0.00 | 0.00 | 56 | 1016.1 |
| 20260508153704 | 20 | 112 | 6.4 | 16.1 | 0.00 | 0.00 | 0.00 | 56 | 1016.1 |
| 20260508153204 | 20 | 173 | 6.4 | 16.1 | 0.00 | 0.00 | 0.00 | 58 | 1016.1 |
| 20260508151703 | 19 | 161 | 3.2 | 20.9 | 0.00 | 0.00 | 0.00 | 57 | 1016.3 |
| 20260508151204 | 18 | 172 | 1.6 | 9.7 | 0.00 | 0.00 | 0.00 | 61 | 1016.3 |
| 20260508150703 | 18 | 159 | 8.0 | 14.5 | 0.00 | 0.00 | 0.00 | 62 | 1016.3 |
| 20260508150204 | 17 | 121 | 4.8 | 16.1 | 0.00 | 0.00 | 0.00 | 61 | 1016.3 |
| 20260508144704 | 18 | 30 | 4.8 | 14.5 | 0.00 | 0.00 | 0.00 | 59 | 1016.3 |
| 20260508144204 | 18 | 149 | 3.2 | 11.3 | 0.00 | 0.00 | 0.00 | 59 | 1016.3 |
| 20260508143704 | 18 | 49 | 8.0 | 19.3 | 0.00 | 0.00 | 0.00 | 60 | 1016.2 |
| 20260508143204 | 18 | 94 | 14.5 | 22.5 | 0.00 | 0.00 | 0.00 | 60 | 1016.2 |
| 20260508141704 | 16 | 101 | 1.6 | 19.3 | 0.00 | 0.00 | 0.00 | 68 | 1016.3 |
| 20260508141203 | 16 | 65 | 6.4 | 12.9 | 0.00 | 0.00 | 0.00 | 67 | 1016.5 |
| 20260508140704 | 16 | 42 | 8.0 | 11.3 | 0.00 | 0.00 | 0.00 | 68 | 1016.5 |
| 20260508140204 | 16 | 59 | 4.8 | 12.9 | 0.00 | 0.00 | 0.00 | 69 | 1016.5 |
| 20260508133706 | 15 | 79 | 3.2 | 12.9 | 0.00 | 0.00 | 0.00 | 70 | 1016.5 |
| 20260508133204 | 15 | 103 | 3.2 | 16.1 | 0.00 | 0.00 | 0.00 | 69 | 1016.6 |
| 20260508131703 | 16 | 136 | 4.8 | 12.9 | 0.00 | 0.00 | 0.00 | 67 | 1016.6 |
| 20260508131204 | 16 | 122 | 1.6 | 14.5 | 0.00 | 0.00 | 0.00 | 67 | 1016.6 |
| 20260508130704 | 16 | 169 | 3.2 | 16.1 | 0.00 | 0.00 | 0.00 | 67 | 1016.5 |
| 20260508130204 | 16 | 176 | 4.8 | 16.1 | 0.00 | 0.00 | 0.00 | 67 | 1016.5 |
| 20260508124703 | 16 | 84 | 3.2 | 12.9 | 0.00 | 0.00 | 0.00 | 69 | 1016.5 |
| 20260508124204 | 16 | 137 | 1.6 | 8.0 | 0.00 | 0.00 | 0.00 | 70 | 1016.6 |
| 20260508123704 | 15 | 100 | 1.6 | 11.3 | 0.00 | 0.00 | 0.00 | 72 | 1016.5 |
| 20260508123205 | 15 | 77 | 6.4 | 14.5 | 0.00 | 0.00 | 0.00 | 72 | 1016.6 |
| 20260508121704 | 15 | 148 | 3.2 | 12.9 | 0.00 | 0.00 | 0.00 | 76 | 1016.6 |
| 20260508120703 | 14 | 138 | 1.6 | 8.0 | 0.00 | 0.00 | 0.00 | 78 | 1016.7 |
| 20260508120203 | 14 | 147 | 4.8 | 11.3 | 0.00 | 0.00 | 0.00 | 79 | 1016.7 |
| 20260508114703 | 14 | 115 | 3.2 | 14.5 | 0.00 | 0.00 | 0.00 | 79 | 1016.7 |
| 20260508114204 | 14 | 102 | 1.6 | 11.3 | 0.00 | 0.00 | 0.00 | 79 | 1016.8 |
| 20260508111703 | 14 | 123 | 0.0 | 1.6 | 0.00 | 0.00 | 0.00 | 76 | 1016.9 |
| 20260508111204 | 14 | 123 | 0.0 | 3.2 | 0.00 | 0.00 | 0.00 | 75 | 1017.0 |
| 20260508110704 | 14 | 123 | 0.0 | 4.8 | 0.00 | 0.00 | 0.00 | 73 | 1016.9 |
| 20260508110203 | 14 | 125 | 3.2 | 11.3 | 0.00 | 0.00 | 0.00 | 72 | 1016.9 |
| 20260508104704 | 14 | 115 | 0.0 | 3.2 | 0.00 | 0.00 | 0.00 | 72 | 1016.9 |
| 20260508104204 | 14 | 95 | 1.6 | 12.9 | 0.00 | 0.00 | 0.00 | 73 | 1016.9 |
| 20260508103704 | 14 | 111 | 3.2 | 9.7 | 0.00 | 0.00 | 0.00 | 75 | 1016.9 |
| 20260508103204 | 14 | 164 | 1.6 | 9.7 | 0.00 | 0.00 | 0.00 | 75 | 1016.9 |
| 20260508101704 | 14 | 168 | 1.6 | 3.2 | 0.00 | 0.00 | 0.00 | 74 | 1016.7 |
| 20260508101203 | 14 | 168 | 0.0 | 3.2 | 0.00 | 0.00 | 0.00 | 74 | 1016.6 |
| 20260508100704 | 14 | 168 | 0.0 | 9.7 | 0.00 | 0.00 | 0.00 | 73 | 1016.7 |
| 20260508100204 | 14 | 168 | 4.8 | 11.3 | 0.00 | 0.00 | 0.00 | 72 | 1016.7 |
| 20260508094204 | 14 | 130 | 3.2 | 11.3 | 0.00 | 0.00 | 0.00 | 70 | 1016.7 |
| 20260508093704 | 14 | 165 | 4.8 | 11.3 | 0.00 | 0.00 | 0.00 | 70 | 1016.7 |
| 20260508093203 | 14 | 165 | 6.4 | 19.3 | 0.00 | 0.00 | 0.00 | 71 | 1016.7 |
| 20260508091204 | 15 | 138 | 4.8 | 12.9 | 0.00 | 0.00 | 0.00 | 68 | 1016.6 |
| 20260508090703 | 15 | 112 | 6.4 | 14.5 | 0.00 | 0.00 | 0.00 | 68 | 1016.5 |
| 20260508090204 | 15 | 120 | 8.0 | 14.5 | 0.00 | 0.00 | 0.00 | 69 | 1016.6 |
| 20260508084704 | 15 | 172 | 4.8 | 11.3 | 0.00 | 0.00 | 0.00 | 73 | 1016.5 |
| 20260508083703 | 14 | 166 | 4.8 | 12.9 | 0.00 | 0.00 | 0.00 | 73 | 1016.5 |
| 20260508083204 | 14 | 107 | 3.2 | 16.1 | 0.00 | 0.00 | 0.00 | 74 | 1016.6 |
| 20260508081704 | 13 | 166 | 3.2 | 14.5 | 0.00 | 0.00 | 0.00 | 80 | 1016.5 |
| 20260508081204 | 12 | 92 | 3.2 | 12.9 | 0.00 | 0.00 | 0.00 | 80 | 1016.5 |
| 20260508080704 | 12 | 165 | 3.2 | 16.1 | 0.00 | 0.00 | 0.00 | 82 | 1016.5 |
| 20260508080203 | 12 | 156 | 4.8 | 19.3 | 0.00 | 0.00 | 0.00 | 82 | 1016.3 |
| 20260508074704 | 11 | 96 | 8.0 | 14.5 | 0.00 | 0.00 | 0.00 | 86 | 1016.4 |
| 20260508074204 | 11 | 163 | 1.6 | 9.7 | 0.00 | 0.00 | 0.00 | 88 | 1016.4 |
| 20260508073703 | 11 | 72 | 3.2 | 8.0 | 0.00 | 0.00 | 0.00 | 88 | 1016.4 |
| 20260508071704 | 10 | 94 | 3.2 | 16.1 | 0.00 | 0.00 | 0.00 | 89 | 1016.3 |
| 20260508071203 | 10 | 105 | 4.8 | 14.5 | 0.00 | 0.00 | 0.00 | 90 | 1016.2 |
| 20260508070704 | 10 | 117 | 4.8 | 11.3 | 0.00 | 0.00 | 0.00 | 89 | 1016.3 |
| 20260508070204 | 10 | 107 | 3.2 | 14.5 | 0.00 | 0.00 | 0.00 | 89 | 1016.3 |
| 20260508064704 | 9 | 87 | 3.2 | 12.9 | 0.00 | 0.00 | 0.00 | 89 | 1016.2 |
| 20260508064204 | 9 | 80 | 4.8 | 12.9 | 0.00 | 0.00 | 0.00 | 89 | 1016.2 |
| 20260508063705 | 9 | 61 | 3.2 | 12.9 | 0.00 | 0.00 | 0.00 | 90 | 1016.2 |
| 20260508063204 | 9 | 114 | 3.2 | 12.9 | 0.00 | 0.00 | 0.00 | 90 | 1016.2 |
| 20260508061203 | 8 | 95 | 1.6 | 11.3 | 0.00 | 0.00 | 0.00 | 90 | 1016.2 |
| 20260508060704 | 8 | 57 | 4.8 | 11.3 | 0.00 | 0.00 | 0.00 | 90 | 1016.2 |
| 20260508060204 | 8 | 89 | 3.2 | 11.3 | 0.00 | 0.00 | 0.00 | 90 | 1016.2 |
| 20260508054703 | 8 | 115 | 3.2 | 9.7 | 0.00 | 0.00 | 0.00 | 90 | 1016.1 |
| 20260508054204 | 8 | 71 | 4.8 | 11.3 | 0.00 | 0.00 | 0.00 | 90 | 1016.2 |
| 20260508053704 | 8 | 114 | 3.2 | 11.3 | 0.00 | 0.00 | 0.00 | 90 | 1016.2 |
| 20260508053203 | 8 | 115 | 3.2 | 11.3 | 0.00 | 0.00 | 0.00 | 90 | 1016.1 |